EHI
12 11 10 11 11 11 11 11 10 8 8 8 10 12 13 14 13 12 11 10 10 10 10 10 10 10 9 7 7 6 4 3 2 2 3 6 9 9 8 8 7 7 9
13 12 12 12 12 12 11 11 11 10 8 8 9 11 13 13 14 14 12 11 11 11 11 11 11 12 12 11 10 8 6 6 5 4 4 8 10 10 9 9 8 7 8
12 12 13 14 13 12 11 11 10 9 8 8 8 10 10 11 13 14 13 12 12 12 12 12 12 13 14 15 15 12 10 10 11 9 7 9 10 10 10 9 8 8 7
11 12 14 15 14 13 12 11 11 9 8 9 9 9 7 7 9 11 11 11 11 11 12 12 11 11 12 13 15 16 15 16 16 13 9 8 8 9 10 8 7 8 8
15 15 16 16 17 17 16 15 16 15 13 12 12 10 7 4 5 8 9 8 8 9 9 10 9 8 8 7 8 12 16 17 17 13 9 7 8 10 10 9 7 7 8
20 19 17 18 20 20 19 18 19 21 20 18 17 15 12 7 4 4 6 6 7 8 8 9 8 7 4 2 2 4 8 11 12 11 9 8 9 11 13 11 10 9 8
21 20 18 17 18 19 18 18 20 24 26 25 24 22 18 11 4 2 3 5 7 9 10 10 9 6 4 4 4 3 4 6 8 9 9 8 10 13 14 14 13 12 11
23 22 20 17 17 17 17 17 20 24 29 31 29 26 21 14 6 2 2 6 9 10 12 12 11 9 7 9 11 11 11 10 8 7 7 7 8 10 11 12 11 11 12
25 24 21 18 18 18 19 19 20 24 30 34 33 28 23 17 9 3 3 9 12 12 13 13 12 11 9 10 15 17 16 15 11 8 6 5 5 5 6 8 8 8 8
22 22 21 22 22 22 22 22 23 25 28 32 32 29 25 21 13 4 4 11 14 13 14 13 11 9 7 7 12 16 16 15 14 12 8 6 5 5 5 7 8 7 7
20 20 23 25 26 25 25 25 25 25 26 27 28 27 25 22 15 5 3 8 11 13 14 12 9 6 3 2 5 9 11 11 14 14 12 9 7 7 8 9 9 9 9
17 18 22 26 27 27 28 28 26 25 24 23 23 23 23 20 13 5 2 3 7 11 13 11 8 3 0 0 1 2 4 6 10 12 12 10 7 6 9 10 10 9 9
14 14 16 21 24 25 27 26 25 24 22 20 19 20 20 18 12 6 3 1 2 6 10 9 5 1 0 0 0 0 1 4 8 10 9 7 5 5 8 10 9 7 6
13 13 13 15 18 20 20 20 21 21 20 18 17 17 18 17 13 11 8 6 4 5 8 8 5 3 3 2 2 2 3 6 7 7 6 5 5 7 9 10 8 4 2
12 12 12 12 14 15 16 16 16 17 15 15 15 14 15 14 12 10 9 8 6 6 8 10 9 8 7 6 5 5 7 7 7 6 5 5 6 8 9 10 7 3 0
11 11 11 12 13 13 13 12 13 11 8 7 8 9 9 8 6 4 4 4 3 4 7 12 13 12 10 8 7 7 8 7 7 6 6 6 7 8 9 9 7 3 1
9 10 11 13 13 12 10 10 10 9 6 3 3 2 2 2 1 1 0 0 0 1 5 11 14 13 11 9 8 8 7 6 6 6 6 7 7 8 8 7 6 3 1
7 8 10 12 13 12 11 10 9 9 8 7 4 2 0 0 0 0 0 0 1 3 6 10 13 14 13 11 9 9 7 6 5 6 7 7 9 9 7 6 4 2 1
6 6 7 10 11 12 12 11 10 9 9 9 8 5 2 1 1 1 0 1 3 6 7 10 12 13 12 11 9 9 7 5 5 6 7 8 9 9 7 4 3 1 1
7 6 6 8 9 10 11 11 10 9 9 9 9 7 4 3 4 3 2 2 4 7 8 9 10 11 12 11 10 9 7 5 4 5 7 8 9 8 6 3 1 0 0
6 6 6 7 8 9 10 10 10 10 9 9 10 9 6 6 8 7 4 3 4 5 7 9 9 10 11 12 11 10 7 4 3 4 6 7 7 6 4 2 1 0 0
4 4 5 6 7 8 9 9 9 9 8 8 9 9 7 7 10 10 7 5 4 4 5 7 9 9 10 10 9 7 5 3 3 4 5 5 4 3 2 1 0 0 0
2 2 3 4 6 7 7 7 7 7 7 7 7 7 6 6 7 9 8 7 6 5 4 6 7 7 7 7 6 5 3 3 4 4 4 2 1 1 0 0 0 0 0
2 2 2 3 4 5 5 5 5 5 5 4 4 4 4 4 5 6 7 8 7 6 4 4 4 4 4 4 4 3 2 2 3 3 3 2 0 0 0 0 0 0 0
2 2 2 2 2 3 3 2 2 3 3 3 3 3 3 3 3 4 4 5 6 6 5 4 3 3 3 3 3 3 2 1 1 2 2 1 0 0 0 0 0 0 0
1 1 1 1 1 1 1 0 0 1 1 2 3 3 3 3 3 3 3 4 4 4 4 4 3 3 3 3 4 3 1 0 0 1 1 0 0 0 0 0 0 0 0
Wind_Speed
6 5 5 5 5 5 4 4 3 3 2 2 2 2 2 2 2 2 3 2 3 3 3 3 3 4 3 3 3 3 4 4 4 3 2 1 2 4 2 3 3 3 1
6 6 6 5 5 5 5 4 4 3 3 3 3 3 3 2 2 3 4 3 3 3 3 4 4 3 3 4 3 4 3 4 5 5 3 3 3 3 3 4 3 2 2
6 6 6 5 5 5 5 4 4 4 4 3 3 3 3 3 3 3 3 4 4 3 3 4 4 4 4 4 4 4 4 4 4 5 4 3 3 2 3 3 3 3 4
6 5 5 5 5 5 5 5 4 4 4 4 3 3 3 3 3 3 4 4 4 3 3 4 4 4 4 5 4 4 4 5 5 5 4 3 3 3 3 3 3 2 3
5 5 5 4 4 4 4 4 4 4 4 3 4 4 4 4 3 3 4 4 4 4 4 4 4 3 4 5 5 4 5 5 5 4 4 4 3 3 3 3 4 3 2
4 4 4 4 3 3 4 4 4 4 4 4 4 4 4 3 0 2 5 4 4 4 4 4 4 3 3 3 4 5 6 6 5 5 4 4 4 4 3 4 4 4 3
4 3 3 4 3 3 3 3 3 4 4 4 4 4 4 2 1 2 5 5 5 4 4 4 4 2 3 3 4 5 5 6 7 7 6 6 5 4 5 5 4 5 5
4 3 3 3 3 3 3 3 3 3 4 4 4 5 4 2 2 3 4 6 5 4 4 4 4 4 3 4 5 4 5 4 5 5 5 6 5 4 4 5 5 5 5
4 3 3 3 3 3 2 2 3 3 4 4 4 4 4 3 3 4 5 5 4 4 4 4 4 4 3 5 5 5 5 4 2 3 3 4 4 5 5 5 4 4 4
3 3 3 3 3 3 2 2 2 3 3 4 3 4 4 4 3 4 5 5 4 4 4 4 4 4 3 4 5 5 5 5 4 3 4 5 5 4 5 5 5 5 4
2 2 3 3 3 3 2 2 2 3 3 3 4 4 4 4 4 5 6 5 4 5 4 4 2 3 4 4 6 5 5 6 5 5 4 3 3 3 3 3 4 5 5
2 2 2 2 3 2 2 2 3 3 3 4 4 4 3 3 3 5 7 7 6 5 4 4 1 4 5 5 5 4 5 7 5 4 4 3 3 2 2 3 3 3 4
2 2 2 2 2 2 2 3 3 3 3 3 3 3 3 2 3 5 7 7 7 5 4 2 2 4 6 6 6 6 6 6 5 4 4 3 3 3 3 3 3 3 4
3 2 2 2 2 2 2 2 2 2 3 3 3 3 3 2 2 2 3 4 6 6 5 3 6 7 6 4 4 5 5 4 5 4 4 3 3 3 3 3 3 3 3
2 2 2 3 2 2 2 2 3 2 3 4 4 3 3 3 1 2 3 3 3 3 5 5 4 4 4 4 4 3 4 4 4 4 4 4 4 4 3 3 3 4 4
3 3 3 3 2 2 2 2 1 2 1 3 4 5 4 2 2 2 4 5 5 5 5 5 5 4 4 4 4 4 4 4 4 4 5 4 4 4 4 3 3 4 4
2 2 3 3 3 3 3 3 3 3 4 5 5 4 4 3 3 4 4 5 5 5 5 5 4 4 4 4 4 4 4 4 4 5 4 4 4 4 4 4 4 4 4
4 3 3 3 4 4 4 4 4 4 3 3 4 6 5 4 4 5 5 4 3 4 5 5 4 4 4 4 4 4 4 4 4 4 4 4 4 4 4 4 4 5 4
3 3 3 3 4 4 4 4 4 5 4 4 3 3 5 4 5 6 6 4 3 4 4 4 4 4 4 4 4 4 4 4 4 4 4 4 4 4 4 5 5 4 5
3 3 4 4 4 4 4 4 4 4 4 4 4 2 2 3 2 3 4 4 4 4 4 4 4 5 4 4 4 4 5 4 4 4 4 4 4 4 5 5 5 4 4
3 3 5 5 4 4 4 4 4 5 4 4 3 2 2 4 3 3 3 3 3 4 4 4 4 5 4 4 4 5 6 4 4 4 4 4 4 4 4 4 4 4 3
3 3 4 4 4 4 4 5 5 5 5 5 4 2 5 4 4 4 4 3 3 3 4 4 4 4 4 4 4 4 5 5 4 4 4 4 4 4 4 4 3 3 3
4 4 4 4 4 4 5 5 5 4 4 4 4 3 3 4 4 4 4 4 3 4 4 4 4 4 4 4 4 4 5 4 4 4 5 4 4 4 3 3 4 3 3
5 5 5 4 4 4 4 4 4 4 4 4 4 4 4 4 4 4 5 4 4 4 4 4 5 5 6 5 4 4 3 3 5 4 5 5 5 4 4 3 3 4 3
5 5 4 4 4 4 5 4 5 4 4 4 3 3 4 4 4 4 4 4 4 4 5 5 5 5 6 7 5 3 2 2 4 4 4 4 5 4 4 4 3 3 3
4 4 4 4 4 4 4 4 4 4 4 3 3 3 4 4 4 4 4 4 4 4 5 4 5 5 6 5 4 2 1 1 2 4 4 3 3 3 3 3 3 3 2
Wind_Direction
187 193 202 201 200 203 210 212 214 223 230 245 253 263 268 270 277 281 289 279 272 279 281 281 286 302 297 286 273 268 269 271 274 280 269 257 260 279 284 283 279 274 252
181 185 192 198 201 206 206 213 216 219 228 236 252 260 263 264 268 272 279 282 274 273 280 285 284 282 276 281 285 279 278 274 273 282 277 266 255 259 273 280 285 287 293
177 184 188 193 201 210 214 215 217 222 230 238 243 252 262 263 263 268 275 280 278 277 277 276 281 285 283 288 280 278 275 269 268 267 271 275 265 265 272 267 282 292 284
183 193 194 199 205 212 215 217 218 223 229 236 242 245 253 256 257 264 265 267 270 272 271 273 278 279 282 281 272 269 276 276 268 265 268 265 261 261 265 275 280 281 294
188 195 196 204 206 214 217 219 218 225 230 232 244 244 249 248 255 264 263 258 263 268 270 272 276 291 310 301 298 297 286 276 272 269 272 271 277 285 283 289 290 285 277
191 193 191 200 203 209 215 221 224 226 233 237 243 247 249 258 79 271 271 264 260 260 265 268 262 245 253 259 282 296 296 283 287 286 283 287 292 288 300 290 290 289 291
185 186 181 187 193 205 221 224 234 236 231 234 240 245 249 240 184 239 263 265 260 263 267 271 276 278 262 262 248 238 249 255 264 275 282 285 286 293 290 283 289 293 303
167 172 177 186 191 199 214 226 235 240 236 236 240 245 248 232 187 224 255 253 260 261 262 266 275 279 288 294 277 273 272 262 254 249 262 273 281 290 279 280 278 263 259
166 172 179 187 194 204 218 232 238 243 243 240 237 242 243 237 201 214 241 249 248 253 256 255 263 268 297 293 272 273 277 269 243 241 270 279 294 287 286 275 272 270 275
178 184 190 194 198 206 214 230 240 245 248 252 246 248 245 246 207 203 231 249 247 248 242 238 232 258 274 276 266 271 276 280 283 254 234 235 239 233 242 260 272 274 278
186 192 206 207 208 210 214 227 240 244 247 253 252 250 246 246 207 194 215 251 256 254 250 244 214 178 220 250 268 276 288 290 273 262 252 243 239 237 240 249 274 285 288
188 200 219 233 238 197 202 224 233 238 237 239 239 243 241 233 222 203 206 232 269 260 261 262 226 174 214 236 253 274 279 277 266 263 262 260 260 262 262 263 265 275 286
188 203 218 225 236 229 225 229 230 230 244 244 244 247 245 239 200 195 203 219 241 258 271 286 257 217 223 228 234 245 249 255 263 264 264 266 267 266 263 243 234 234 250
199 207 217 223 227 217 243 246 252 255 258 259 260 262 258 247 254 225 218 219 225 238 257 232 213 222 238 256 230 226 241 261 269 267 271 269 268 255 251 263 260 248 247
207 224 237 236 234 235 246 284 276 289 300 287 285 283 281 270 302 326 285 265 262 256 259 251 245 230 231 234 239 242 243 241 249 261 267 264 263 262 258 257 261 262 261
224 229 240 242 236 241 234 235 211 254 227 239 268 279 281 306 304 263 267 279 276 264 255 250 252 250 249 250 245 241 242 250 257 259 261 261 262 263 265 261 253 260 268
249 258 261 257 246 251 251 254 247 219 214 223 227 239 256 274 269 253 250 260 249 228 236 251 254 256 260 264 263 258 256 256 261 262 264 265 265 266 263 260 257 255 258
252 245 252 253 253 253 253 255 257 260 251 240 206 201 211 223 241 245 239 234 226 220 244 251 253 257 261 263 265 267 266 262 256 260 263 264 264 263 261 259 256 261 262
256 259 259 264 258 257 259 260 262 264 266 265 257 183 189 202 214 221 219 237 248 244 249 258 263 262 260 261 265 265 263 262 264 264 263 266 262 259 259 260 259 250 254
242 256 263 264 260 252 251 258 262 262 265 267 269 270 204 228 244 216 215 232 250 256 261 264 269 273 269 265 260 260 259 259 258 259 266 266 265 263 259 259 259 252 246
254 227 220 250 260 264 263 262 263 265 266 265 265 272 258 262 264 266 257 244 247 256 262 266 268 271 270 264 262 264 264 263 266 269 265 263 261 261 264 260 258 261 261
261 259 249 253 259 261 267 263 261 262 264 265 264 227 195 244 264 268 260 255 255 259 261 258 261 264 270 270 267 267 267 266 267 271 272 267 260 257 257 261 263 261 260
256 259 259 258 260 250 249 256 262 264 268 265 265 268 247 255 264 270 274 273 266 264 265 262 262 264 266 266 268 267 269 273 274 273 268 263 259 258 257 256 256 255 256
254 254 257 259 259 262 260 260 262 264 266 268 269 269 268 267 269 271 272 274 273 270 268 267 268 269 268 270 269 268 274 282 274 256 254 259 258 254 250 248 250 251 251
261 257 257 257 255 258 260 262 263 266 268 268 269 272 276 274 272 275 277 275 276 276 276 273 270 270 270 268 274 286 321 290 274 275 252 243 245 250 249 245 246 250 250
264 262 261 262 261 259 259 261 262 265 266 268 270 272 275 276 275 275 276 279 280 276 276 273 278 280 278 271 275 279 240 262 276 281 265 244 241 246 247 238 234 238 235